This is the latest recevied weather packets stored in our database for station/object KI4BIY. If no packets are shown the sender has not sent any weather packets the latest 10 day(s).
| Time | Temp. | Humidity | Pressure | Rain* | Wind** | Luminosity | Snow |
|---|---|---|---|---|---|---|---|
| 1777770448 | 14.44° C | 53% | 1017.6 hPa | 0 mm | - | 0 W/m² | - |
| 1777770145 | 14.44° C | 52% | 1017.2 hPa | 0 mm | - | 0 W/m² | - |
| 1777769843 | 15° C | 50% | 1017.1 hPa | 0 mm | - | 0 W/m² | - |
| 1777769540 | 15° C | 50% | 1017.2 hPa | 0 mm | - | 0 W/m² | - |
| 1777769236 | 15.56° C | 50% | 1016.7 hPa | 0 mm | - | 0 W/m² | - |
| 1777768935 | 15.56° C | 48% | 1016.9 hPa | 0 mm | - | 0 W/m² | - |
| 1777768631 | 15.56° C | 51% | 1016.8 hPa | 0 mm | - | 1 W/m² | - |
| 1777768328 | 16.11° C | 48% | 1016.9 hPa | 0 mm | - | 3 W/m² | - |
| 1777768025 | 16.11° C | 52% | 1016.7 hPa | 0 mm | - | 3 W/m² | - |
| 1777767721 | 16.67° C | 48% | 1016.6 hPa | 0 mm | - | 4 W/m² | - |
| 1777767417 | 16.67° C | 48% | 1016.7 hPa | 0 mm | - | 6 W/m² | - |
| 1777767114 | 16.67° C | 47% | 1016.5 hPa | 0 mm | - | 7 W/m² | - |
| 1777766812 | 17.22° C | 49% | 1016.5 hPa | 0 mm | - | 8 W/m² | - |
| 1777766509 | 17.22° C | 48% | 1016.6 hPa | 0 mm | - | 9 W/m² | - |
| 1777766206 | 17.22° C | 50% | 1016.5 hPa | 0 mm | - | 10 W/m² | - |
| 1777765904 | 17.22° C | 51% | 1016.5 hPa | 0 mm | - | 10 W/m² | - |
| 1777765599 | 17.22° C | 51% | 1016.1 hPa | 0 mm | - | 12 W/m² | - |
| 1777765297 | 17.78° C | 49% | 1016.3 hPa | 0 mm | - | 12 W/m² | - |
| 1777764993 | 17.78° C | 46% | 1016.3 hPa | 0 mm | - | 15 W/m² | - |
| 1777764690 | 17.78° C | 44% | 1015.9 hPa | 0 mm | - | 15 W/m² | - |
| 1777764385 | 17.78° C | 46% | 1016.1 hPa | 0 mm | - | 16 W/m² | - |
| 1777764084 | 17.78° C | 47% | 1016.1 hPa | 0 mm | - | 18 W/m² | - |
| 1777763780 | 18.33° C | 46% | 1016.1 hPa | 0 mm | - | 17 W/m² | - |
| 1777763478 | 18.33° C | 43% | 1016.3 hPa | 0 mm | - | 18 W/m² | - |
| 1777763176 | 18.33° C | 46% | 1016.2 hPa | 0 mm | - | 19 W/m² | - |
* Rain latest hour (hover to see other rain measurements)
** Current wind speed in m/s (hover to see current wind gust speed)